weather.gov     
National Weather Service

Terminal Aerodrome Forecast
NWS Homepage
This page is being discontinued on March 12, 2014.
The same data is available at this site. Please update your bookmarks.
Thank you, and we apologize for the inconvenience.
Please send an email to SR-SRH.Webmaster@noaa.gov with any concerns.


Current Version
Previous Version:    01  02  03  04  05  06  07  08  09  10  11  12  13  14  15  16  17  18  19  20  21  22  23  24  25  
[Printable]
887
FTUS42 KILM 231100
TAFILM
TAF
KILM 231120Z 2312/2412 VRB03KT 6SM -RA SCT045 BKN100
     FM231500 12005KT 5SM -RA SCT012 BKN025
     FM232000 13010KT 3SM RA BR BKN006 OVC015
     FM240200 17017KT 3SM SHRA BR BKN010 OVC025
     FM240700 20012KT P6SM VCSH BKN016=


U.S. Dept. of Commerce
NOAA National Weather Service
1325 East West Highway
Silver Spring, MD 20910
E-mail: w-nws.webmaster@noaa.gov
Page last modified: May 16, 2007
NATIONAL WEATHER SERVICE: for Safety, for Work, for Fun - FOR LIFE